Wind_Speed
5 4 8 9 9 10 10 8 7 5 5 6 5 5 6 5 4 5 6 7 7 6 7 8 8 8 9 9 8 8 7 9 10 10 9 10 11 9 9 9 8 8 9 12 16 19 20 22 23 24 24 25 25 25 28 31 32 36 38 37 34 32 31 30 29 28 25 24 22 20 18 16 15 14 14 13 11 11 10 11 12 14 15 15 15 14
6 8 9 8 7 8 9 8 7 8 8 7 5 4 6 6 5 5 5 7 7 6 5 6 8 8 9 8 7 10 11 11 13 13 11 12 10 8 9 9 8 7 9 12 14 16 17 18 21 22 22 23 23 25 28 30 31 34 35 35 34 32 30 29 28 27 25 24 22 21 20 18 17 15 14 13 13 14 15 16 17 18 17 16 15 13
7 9 8 7 6 6 8 8 8 9 8 8 6 4 5 5 3 4 5 6 4 4 5 6 8 7 6 5 6 8 9 9 12 14 15 15 12 10 10 9 9 10 11 11 10 14 17 18 21 22 22 22 22 24 26 28 31 32 32 33 32 31 30 28 27 26 24 22 21 21 20 19 18 16 15 16 17 18 19 19 19 18 16 14 13 12
7 7 7 7 6 7 8 10 10 9 7 6 5 4 4 4 4 4 6 6 4 4 4 6 6 3 3 4 3 2 2 3 3 5 8 10 11 12 11 10 11 13 13 12 10 12 16 18 19 21 21 20 20 21 23 27 29 29 30 31 31 30 28 27 26 24 23 21 19 20 20 20 19 20 21 21 21 20 20 18 17 15 13 11 11 11
5 5 9 8 8 9 8 10 12 9 6 7 6 6 4 4 5 4 5 6 5 3 4 8 6 2 2 4 1 2 5 5 3 5 5 4 6 8 10 10 12 13 13 13 12 11 14 15 16 18 19 19 18 19 23 26 26 26 28 29 29 28 27 26 25 24 23 21 21 21 21 21 22 23 23 23 22 20 19 18 16 13 11 10 10 10
5 5 11 11 10 10 9 10 13 10 5 7 7 6 6 5 5 6 3 2 3 3 3 8 5 0 1 1 2 2 2 3 2 6 7 5 7 9 10 11 12 12 12 12 12 11 13 15 17 18 19 19 18 19 22 23 23 25 27 27 27 26 25 24 23 23 23 22 22 23 24 25 24 22 20 22 22 20 19 18 16 14 11 9 9 9
5 8 12 13 11 11 11 10 12 12 7 6 5 8 8 7 7 7 2 3 4 5 6 9 6 3 1 4 6 5 6 6 5 7 7 7 10 11 11 12 13 13 11 10 11 12 13 16 18 18 19 20 19 20 21 20 22 25 26 25 25 24 24 23 22 22 22 23 24 24 26 27 25 21 20 21 22 21 20 18 15 13 11 9 9 9
8 11 12 14 13 10 10 9 10 12 9 4 5 9 10 10 11 8 3 3 4 4 5 9 6 4 4 7 7 5 6 6 6 7 9 9 11 12 12 13 13 13 12 11 11 12 12 14 17 18 19 20 20 21 21 21 23 25 25 25 24 24 24 23 22 21 22 24 24 25 26 25 24 23 23 23 23 21 19 18 15 13 12 9 8 8
8 12 14 16 14 10 9 7 8 11 9 5 5 7 7 9 9 6 4 4 4 2 4 6 5 5 4 4 4 4 7 8 9 11 12 13 14 14 14 14 12 12 13 12 11 11 12 14 17 19 20 20 21 22 22 22 23 24 24 24 24 23 22 22 22 21 21 22 24 25 26 24 23 25 26 24 23 21 19 18 16 14 13 10 9 8
8 10 13 14 12 9 7 7 7 10 8 6 6 5 3 4 5 4 5 5 3 2 5 7 6 5 2 3 5 5 7 10 11 11 12 13 14 13 13 15 13 11 12 12 11 11 13 17 18 19 21 21 21 21 22 22 23 23 23 23 23 22 21 21 22 21 20 21 23 26 27 26 26 26 25 24 23 20 19 19 17 15 14 12 11 11
8 8 10 11 10 8 6 6 7 8 8 6 8 6 3 2 1 2 4 4 4 4 6 10 9 6 4 6 7 8 11 15 13 10 11 13 15 14 13 13 12 11 11 11 11 11 14 19 20 21 21 20 20 21 21 22 22 22 22 22 22 21 20 21 20 20 19 20 24 27 27 28 28 27 26 25 23 21 20 20 19 17 15 14 13 13
8 9 8 8 10 10 7 6 8 8 8 7 7 5 2 3 2 1 2 2 5 6 6 9 9 6 5 7 9 11 13 14 15 14 16 18 18 16 13 13 12 11 12 12 11 11 12 15 18 21 20 19 21 21 20 21 22 21 21 22 22 20 20 19 18 18 19 21 25 27 27 28 28 27 26 25 24 22 22 22 20 18 17 16 15 14
7 8 7 7 10 13 10 7 7 8 8 8 7 5 4 1 1 3 3 3 5 5 6 7 10 6 5 7 14 18 14 12 16 18 20 21 19 17 14 14 12 10 12 12 11 10 10 11 14 18 19 19 21 22 21 22 22 22 22 23 23 20 19 19 17 18 19 22 25 26 26 27 27 26 25 24 24 23 22 21 19 18 17 17 16 16
4 5 7 10 9 12 13 9 7 8 9 9 7 6 6 4 4 4 4 2 2 5 7 6 10 6 3 4 14 21 19 17 17 14 15 19 19 17 15 14 12 11 12 11 11 11 10 10 14 17 20 19 21 22 22 22 23 23 22 23 23 21 20 20 19 19 21 23 24 25 26 26 26 25 24 24 23 22 21 19 18 16 16 16 16 16
6 5 8 10 8 11 14 11 8 7 7 8 5 6 5 5 5 4 3 4 4 5 5 3 5 5 4 3 11 20 18 12 10 7 9 10 11 13 12 13 13 12 11 10 10 11 10 13 16 18 20 20 21 23 23 23 23 23 22 24 25 23 23 23 22 22 23 24 24 25 25 25 25 25 24 23 23 21 20 18 17 16 14 15 16 15
6 4 7 9 7 14 15 10 8 6 5 7 4 6 5 5 6 2 3 6 5 2 3 2 3 4 5 1 1 10 10 9 11 10 11 10 9 11 11 12 12 11 11 11 11 11 11 14 17 18 20 20 22 24 23 23 24 24 24 26 27 26 26 26 25 25 25 25 25 25 25 25 25 24 24 24 23 21 19 18 17 15 15 16 16 16
6 4 7 10 8 15 16 10 10 9 6 5 5 5 6 6 7 4 3 1 4 4 4 2 1 1 1 5 6 9 12 11 13 13 13 12 12 12 11 11 11 11 11 11 10 11 12 14 16 18 20 21 22 23 23 24 26 26 27 28 29 28 27 27 27 27 27 27 26 26 25 25 25 25 25 24 23 21 18 16 16 17 19 19 17 16
6 4 7 12 10 14 17 11 9 9 7 6 6 6 4 5 3 4 3 1 4 4 4 1 3 2 2 2 3 9 13 10 13 14 13 12 13 12 10 10 11 12 12 11 10 11 11 13 16 18 20 22 23 23 24 26 28 28 28 29 30 28 26 27 27 27 27 26 26 25 25 25 24 24 24 23 22 20 17 17 18 19 19 18 17 18
3 2 5 10 11 11 12 10 7 6 5 5 6 7 5 5 3 1 3 2 3 4 3 3 2 3 3 4 5 11 14 13 13 13 14 14 14 13 11 11 12 13 12 10 10 10 10 13 17 19 21 22 23 24 26 28 28 28 28 28 29 27 26 26 26 26 25 25 25 24 23 23 23 23 22 21 20 19 19 20 20 19 18 18 18 18
0 3 3 6 9 8 6 7 7 5 3 4 5 6 4 4 4 3 3 4 4 4 3 2 1 2 3 7 12 15 15 16 16 14 15 16 15 13 11 12 13 13 12 10 11 10 10 13 18 22 23 23 25 26 27 28 28 28 27 27 27 26 25 25 24 25 24 23 23 22 21 21 21 21 20 20 20 21 23 22 20 19 20 20 19 17
3 3 3 3 6 9 4 4 7 6 5 5 4 4 4 3 2 2 2 3 4 4 3 2 1 4 5 7 15 18 18 19 20 18 16 15 15 14 13 13 13 13 12 11 11 11 11 15 19 23 24 24 25 26 26 27 28 28 27 26 26 26 25 24 23 23 24 23 22 21 21 21 21 21 21 22 23 24 24 22 21 22 22 21 19 17
3 2 4 3 4 8 4 3 8 8 6 6 4 3 5 5 3 3 2 2 2 4 5 5 3 6 5 6 14 19 19 20 21 21 18 17 18 17 15 15 16 15 13 12 13 12 12 15 18 23 25 24 25 25 25 27 27 27 27 26 25 25 24 23 23 23 23 22 22 22 23 23 23 23 24 24 24 25 24 23 23 23 21 20 19 16
4 2 3 4 4 6 5 3 7 8 6 5 4 3 4 5 5 5 3 4 1 1 1 4 3 6 5 5 12 15 18 20 20 19 17 15 17 17 16 16 16 16 14 14 14 13 14 17 19 23 24 24 24 25 25 26 27 27 27 26 25 24 23 23 23 24 23 22 24 24 25 24 24 24 24 24 24 25 25 25 24 22 21 20 18 15
4 2 3 3 1 1 1 3 1 4 5 3 2 2 4 4 4 5 5 4 2 1 1 3 2 5 5 3 7 8 11 15 16 15 16 14 13 14 16 15 14 14 13 13 13 12 15 19 19 21 22 23 24 24 24 26 27 27 27 26 25 24 24 25 24 24 24 25 27 27 26 26 25 25 24 24 25 26 26 25 23 21 20 19 16 15
2 2 3 5 3 2 3 4 3 1 3 3 1 2 4 6 5 4 3 3 2 2 4 5 3 6 6 1 7 7 6 7 6 6 9 11 12 13 13 12 12 13 12 12 13 12 14 16 16 18 20 21 23 24 24 26 27 27 26 25 25 24 25 25 25 24 25 27 28 27 26 26 25 25 26 26 26 26 26 24 22 20 19 17 16 17
1 2 4 5 5 5 4 4 5 4 3 2 1 1 4 7 7 5 3 5 1 3 3 5 4 4 4 3 12 12 11 11 9 8 8 5 8 11 12 13 13 13 14 15 15 13 13 13 14 18 20 20 23 24 24 25 26 26 26 25 24 25 26 26 25 26 27 27 26 26 25 24 25 26 27 27 27 26 25 24 22 21 19 18 19 20
2 1 3 6 6 7 6 5 5 6 4 3 1 3 4 6 8 5 4 4 4 2 1 3 5 4 3 7 13 13 13 13 11 12 11 7 8 11 12 14 13 13 14 15 15 14 13 13 14 18 21 21 22 24 25 25 26 27 27 25 25 27 27 27 27 27 26 26 25 25 25 24 25 27 28 27 27 27 26 24 23 21 19 19 20 23
3 1 1 6 7 6 6 5 4 7 5 6 6 4 4 5 8 7 4 5 5 3 2 6 4 8 7 8 13 16 15 13 12 14 15 14 14 13 12 13 13 13 13 14 15 15 15 14 13 17 22 23 23 24 25 26 27 28 27 26 26 28 28 27 28 27 26 25 25 25 25 25 26 27 28 28 27 27 26 25 23 21 20 20 21 24
5 1 1 4 5 2 1 3 6 8 5 6 7 4 2 5 8 7 5 6 6 5 6 6 5 7 8 7 12 17 17 17 17 16 16 15 14 13 14 14 14 14 15 15 16 16 16 15 13 16 21 24 24 24 25 27 28 27 27 25 26 27 27 27 28 27 26 26 25 26 26 26 27 28 28 28 27 27 26 25 24 21 19 19 22 24
5 1 3 2 4 5 5 2 3 8 6 4 5 6 5 6 7 7 4 4 6 4 4 7 5 2 2 5 9 9 9 10 11 10 12 14 14 14 15 15 14 14 15 16 16 15 15 15 15 17 21 23 25 26 26 27 28 28 27 26 26 27 27 27 28 27 27 26 26 27 27 27 28 28 28 28 28 28 27 26 24 21 19 20 21 23
4 1 4 3 5 5 6 5 2 5 7 5 3 3 5 7 4 4 4 3 4 4 3 7 8 2 2 1 5 7 8 8 8 9 11 13 14 15 15 14 14 14 15 16 16 14 14 16 17 19 22 24 26 27 27 27 29 29 28 27 27 28 27 27 28 28 27 27 27 27 28 28 29 29 29 29 29 30 29 27 24 21 20 21 21 22
4 1 3 5 5 4 5 5 4 2 5 4 2 4 3 7 3 2 3 3 5 7 7 6 5 4 2 2 5 8 11 12 12 12 12 12 13 16 16 16 16 16 16 16 16 16 16 17 18 19 24 28 30 29 29 30 31 30 29 29 29 28 28 28 29 28 28 27 27 28 28 29 30 30 30 30 30 30 29 26 24 22 22 22 21 21
2 3 2 4 4 3 5 3 2 4 6 1 5 5 3 4 3 2 2 2 5 9 9 5 5 5 6 8 8 9 11 14 15 14 13 13 14 14 14 15 15 16 16 17 18 18 18 17 19 23 27 31 32 32 33 35 35 32 32 32 30 29 29 28 29 29 28 28 28 28 29 30 31 31 30 30 30 30 28 26 24 23 22 22 21 21
3 4 2 2 3 1 6 3 4 7 3 5 7 4 4 4 6 6 2 3 4 5 5 5 5 5 7 10 13 14 14 14 14 13 12 13 13 12 12 12 13 14 14 15 16 15 14 16 20 23 26 27 28 30 33 36 36 34 33 33 31 30 30 30 30 30 29 28 28 29 29 30 30 30 30 30 30 29 28 26 25 23 21 21 21 21
3 4 2 2 3 1 4 4 6 5 5 6 6 5 3 3 8 10 4 1 2 5 8 9 9 10 11 9 8 11 13 13 12 11 12 12 12 13 14 12 12 14 14 14 14 14 15 20 23 22 22 24 27 31 32 33 34 34 34 33 31 30 30 30 30 30 30 29 29 29 29 30 31 31 30 30 29 29 28 27 26 23 21 21 21 21
4 3 2 2 2 1 3 4 5 5 6 4 6 6 3 2 5 8 5 4 4 2 8 11 12 13 11 6 3 3 6 8 8 7 10 12 12 14 15 15 16 18 18 18 19 19 21 24 25 26 26 27 29 32 32 32 33 33 32 32 31 30 30 30 29 29 29 29 29 29 30 30 31 31 31 30 29 29 28 27 26 24 22 22 22 21
6 3 2 3 1 2 3 2 1 1 3 4 4 3 1 1 2 5 5 2 5 4 3 9 11 11 10 8 6 6 8 8 6 3 6 9 12 14 16 17 18 19 18 20 22 24 25 26 27 29 30 30 32 33 32 32 33 32 31 31 31 31 31 30 28 27 28 28 28 29 30 31 32 31 31 31 30 29 29 28 27 25 23 23 22 22
6 4 3 3 2 2 4 3 3 3 1 4 5 5 4 3 6 7 5 2 5 6 1 8 13 11 10 9 9 9 9 7 5 5 7 9 10 11 11 11 14 16 16 19 22 23 26 28 29 29 29 30 31 33 33 33 33 33 33 32 31 31 31 31 29 29 29 29 29 30 30 31 32 32 32 31 31 30 29 28 27 25 23 22 22 22
6 4 4 4 3 2 4 3 2 2 3 6 6 8 7 3 6 6 6 3 6 7 3 7 13 12 12 13 12 11 9 6 6 7 9 11 11 10 10 10 11 14 18 22 25 25 26 28 28 27 28 28 29 30 33 34 34 34 32 31 31 30 30 31 33 34 32 29 29 30 32 32 33 32 32 31 31 31 29 28 26 25 23 22 21 21
5 4 4 4 3 2 4 3 1 2 3 4 5 7 6 2 7 8 2 5 7 7 3 6 12 11 13 15 13 11 10 8 9 10 12 13 11 10 12 13 13 15 18 22 26 29 29 29 27 27 27 28 28 31 33 34 34 32 30 29 30 29 29 31 33 35 34 32 30 31 32 33 33 32 32 32 31 30 29 27 27 26 24 22 21 22
4 3 3 2 2 3 4 2 1 2 4 4 4 5 4 3 9 5 4 7 5 6 4 6 11 10 11 14 11 10 8 5 4 9 13 13 11 9 11 15 18 20 22 23 25 28 29 29 29 29 29 30 32 34 35 35 32 30 28 29 29 28 30 33 32 33 35 34 33 33 32 32 32 32 32 31 30 29 27 26 26 26 25 23 24 24
2 3 3 1 1 1 3 3 1 3 4 3 3 3 1 4 3 3 6 4 4 5 5 2 10 9 10 13 11 6 2 1 5 13 17 15 14 11 11 14 17 19 22 26 27 28 27 26 27 29 29 31 34 35 35 35 32 29 29 29 28 28 32 33 33 33 35 35 35 35 33 32 32 32 31 31 30 29 27 26 26 27 27 27 26 24
2 1 1 2 2 1 3 3 2 2 4 4 5 4 4 3 5 6 2 1 3 4 3 3 6 8 9 12 9 1 4 5 8 13 15 14 14 14 14 16 18 18 22 25 27 29 29 26 25 26 28 30 33 34 35 34 31 29 28 28 27 30 33 34 34 34 35 35 36 35 34 33 32 32 31 31 30 30 29 28 28 27 26 25 23 22
1 2 1 2 2 2 2 1 2 4 5 4 1 2 1 2 4 5 4 1 2 2 1 1 1 5 10 12 8 4 6 7 9 11 12 11 12 13 14 16 19 21 24 26 27 29 29 27 25 26 28 31 33 34 35 35 32 29 28 28 29 33 35 34 34 34 34 35 35 35 34 33 33 32 31 31 31 31 30 29 28 25 23 22 21 21
1 2 3 2 1 2 4 4 5 5 5 3 2 4 2 2 1 5 6 2 1 1 3 1 2 4 9 11 8 7 8 9 11 12 13 13 12 13 13 15 18 22 25 26 28 30 29 28 27 27 27 29 32 34 34 35 34 31 28 30 33 35 36 35 35 35 35 35 35 35 34 33 33 32 31 31 31 31 31 30 28 25 23 22 21 21
3 2 1 3 2 2 1 1 2 1 2 4 3 1 0 1 1 4 6 3 1 2 2 4 4 5 7 10 10 7 8 11 12 12 12 13 13 13 13 14 18 23 25 26 28 29 29 28 29 29 28 28 30 32 32 34 35 33 31 33 36 37 37 37 36 35 35 35 35 35 34 34 33 32 31 30 30 30 30 30 28 25 24 23 22 22
4 3 3 3 3 3 1 3 2 0 1 3 4 4 4 3 2 2 4 2 1 1 2 3 3 2 4 10 12 10 9 11 13 12 11 12 13 14 14 14 17 23 26 28 30 31 31 29 28 28 28 28 29 30 31 31 33 33 34 35 36 37 37 37 36 35 35 35 35 34 34 34 33 32 30 29 28 28 28 28 26 25 24 24 24 23
3 3 4 3 3 2 3 6 4 2 4 3 3 3 3 4 5 4 2 1 1 3 3 1 2 4 4 7 10 11 10 10 12 13 12 11 12 13 13 14 19 23 26 28 32 32 31 29 29 28 28 28 29 30 31 31 32 34 36 37 37 38 38 37 36 35 34 34 35 34 34 34 33 32 30 28 27 28 28 27 26 25 25 25 24 24
1 2 2 2 3 2 2 4 2 3 5 6 4 2 4 3 3 5 5 4 4 5 4 4 4 3 5 6 7 10 11 10 9 12 13 11 11 11 12 15 20 23 25 28 31 31 30 29 30 30 29 29 29 30 31 31 33 35 38 39 39 40 39 36 35 35 34 34 34 33 33 33 33 32 31 29 27 27 27 26 26 26 24 24 23 21
2 2 1 3 3 0 3 3 2 3 1 5 4 4 6 3 2 5 6 5 5 4 3 5 6 4 4 6 6 9 10 9 7 9 10 10 10 12 14 17 20 21 23 26 27 28 29 29 30 31 30 29 30 31 31 32 34 36 38 39 40 40 39 37 35 33 33 33 33 32 33 33 33 32 31 30 28 27 25 25 24 23 21 20 20 20
1 2 2 4 4 5 7 6 3 4 2 5 5 4 6 3 3 5 4 3 3 3 2 6 7 5 5 5 4 7 10 9 9 9 8 7 9 13 16 19 21 20 22 24 25 25 27 28 30 31 30 29 30 31 31 33 35 36 37 39 39 39 39 37 35 33 33 33 33 33 34 34 33 32 30 29 28 27 25 23 21 20 19 18 17 18
Wind_Direction
163 199 214 207 211 206 207 196 186 229 231 204 194 194 199 192 217 212 208 220 167 153 214 189 159 169 178 186 167 139 126 130 141 148 151 158 162 165 164 159 157 155 154 153 154 155 156 161 164 167 168 167 169 169 162 157 155 155 158 160 160 164 170 173 174 175 177 176 172 169 170 168 167 173 174 169 167 165 154 137 124 119 116 113 111 113
175 212 222 205 211 211 204 187 183 221 238 238 223 206 212 195 217 226 212 226 178 151 226 176 143 177 187 183 166 143 145 157 159 157 163 168 168 170 160 152 147 144 145 144 146 151 154 156 161 165 168 169 168 165 161 158 157 158 160 161 160 165 172 176 178 178 179 181 176 169 167 165 163 166 168 158 146 138 130 123 118 115 114 113 111 113
201 220 211 193 208 210 199 187 195 221 228 238 231 210 224 191 196 245 238 241 186 161 224 174 150 184 186 160 162 160 159 173 173 167 169 168 166 168 163 154 146 146 149 149 144 149 153 155 159 165 170 172 169 163 162 161 160 160 161 162 163 167 172 176 180 180 181 181 178 173 167 164 159 151 147 139 132 130 124 118 117 116 116 115 112 111
208 213 188 188 205 203 201 190 196 222 228 235 219 195 235 200 176 216 237 246 208 174 191 156 137 148 100 87 140 195 93 122 158 152 156 161 161 165 162 156 155 155 155 154 151 152 156 155 157 164 171 174 170 164 163 163 163 162 161 163 166 169 172 174 177 179 180 175 169 168 165 160 149 136 130 127 126 127 124 119 118 118 116 116 111 108
218 180 171 191 211 204 203 192 196 214 222 235 222 189 218 226 204 205 223 236 216 181 134 110 86 55 67 78 122 333 34 72 84 116 131 134 136 148 152 157 165 162 157 157 157 157 155 153 156 162 170 174 171 168 168 167 164 160 160 165 169 170 170 172 174 175 176 170 161 156 151 145 137 131 128 125 125 125 123 119 116 114 115 115 109 106
231 178 171 194 216 207 206 200 200 201 208 242 231 189 199 219 232 232 226 209 181 219 181 124 107 236 332 35 213 236 103 114 135 146 151 141 142 154 157 162 168 163 159 157 155 155 153 153 156 160 169 174 171 172 173 168 164 160 161 166 170 169 169 171 173 173 173 171 164 156 149 144 139 136 133 130 128 126 123 119 115 112 110 108 102 97
214 186 175 196 213 209 212 213 205 194 196 237 204 174 199 218 231 230 179 105 174 225 211 175 168 165 232 256 224 200 164 160 164 161 163 156 160 168 165 165 168 163 159 153 154 157 156 157 158 160 169 172 169 172 171 165 164 163 162 165 167 167 171 173 172 171 172 171 167 160 155 150 145 140 137 136 133 129 125 121 118 112 104 100 97 92
192 187 182 195 206 213 213 212 205 192 195 222 164 164 196 217 233 231 144 139 217 255 224 197 167 123 189 222 209 183 154 157 173 174 172 170 170 170 169 172 169 164 161 156 157 160 158 160 158 159 165 168 168 168 167 165 166 166 164 165 165 166 172 176 173 172 171 169 165 160 155 150 146 142 138 138 134 131 128 122 118 114 107 102 98 94
187 191 188 191 202 215 211 204 192 186 200 225 180 175 191 205 228 226 169 206 238 276 245 207 125 114 193 190 166 168 163 174 192 190 182 179 176 172 171 175 170 163 163 158 156 158 157 158 158 158 160 164 167 166 166 168 167 165 165 165 164 166 172 176 175 173 169 168 164 158 153 147 143 142 140 139 135 132 130 123 119 115 110 102 96 96
197 199 189 190 204 210 201 199 186 184 205 229 216 210 208 207 225 208 187 215 223 198 235 218 159 124 154 174 167 173 186 196 198 191 187 182 177 175 174 174 170 162 161 160 158 156 157 159 158 156 156 160 164 163 166 168 165 162 164 166 166 167 172 174 176 175 168 165 163 158 153 146 143 142 140 139 136 133 130 123 117 112 105 97 94 97
208 197 187 193 204 198 189 199 194 190 195 215 228 230 260 282 268 217 199 191 202 228 239 216 186 136 140 203 194 184 196 195 186 182 183 181 178 180 178 174 169 161 159 162 160 156 154 155 153 153 155 157 158 160 163 164 162 161 163 166 166 167 172 172 175 176 169 163 161 158 153 149 148 147 145 141 136 133 129 121 115 109 101 98 99 98
215 199 191 191 194 183 183 204 204 202 193 201 221 210 224 321 353 274 262 181 197 240 249 206 182 163 174 200 203 211 213 190 178 180 179 179 182 181 177 172 166 159 159 161 159 154 151 150 151 155 157 154 153 156 156 158 162 162 162 164 162 165 170 171 172 172 168 162 158 154 152 151 153 153 148 143 138 136 131 123 117 111 105 102 99 92
224 216 193 178 189 184 184 198 199 206 204 202 208 179 167 201 203 214 228 215 204 238 252 185 165 193 220 198 196 206 212 191 187 188 177 175 178 177 172 168 165 159 159 161 158 157 156 154 155 155 155 152 152 154 153 157 162 162 160 159 156 158 164 167 168 167 165 161 156 153 152 153 154 153 148 143 140 137 132 126 119 113 109 104 97 89
218 242 206 184 190 187 187 188 190 204 202 199 198 169 167 171 175 208 219 219 203 230 249 189 162 195 245 210 197 199 203 195 192 190 176 173 173 170 166 162 164 163 161 160 159 161 163 161 157 154 155 154 151 153 155 157 162 161 157 154 150 150 155 158 159 160 159 158 157 156 155 154 153 150 147 144 142 137 132 126 119 113 109 106 101 94
187 231 212 192 182 180 191 195 184 183 187 203 191 138 161 169 159 196 196 180 201 233 251 187 160 187 182 208 208 202 201 184 163 151 151 160 161 157 156 157 162 163 160 159 160 164 164 159 156 152 154 155 152 153 155 157 159 158 153 149 146 144 148 150 152 154 154 155 157 157 155 154 153 150 146 144 141 137 132 125 117 112 109 111 109 103
191 229 207 196 183 174 188 197 173 156 174 202 169 133 180 182 151 164 186 176 174 203 251 182 179 204 171 28 261 176 166 131 125 131 138 146 150 151 156 160 162 161 161 160 160 163 161 157 154 150 151 153 152 153 154 155 155 151 148 146 143 142 145 147 150 152 154 155 156 156 156 154 152 149 145 141 138 134 129 123 118 111 109 115 116 111
179 249 204 189 187 178 184 191 178 173 174 178 173 180 196 166 135 134 195 191 109 145 243 217 159 273 96 20 22 111 126 126 132 140 148 152 154 157 161 161 161 161 161 161 161 158 156 154 150 148 150 152 153 153 153 152 150 148 146 143 140 141 144 147 151 153 154 155 155 154 155 153 151 148 143 139 135 131 126 122 119 115 111 114 117 118
160 246 215 182 186 188 184 183 189 188 167 160 192 203 182 161 131 102 146 336 74 152 259 295 161 194 92 27 13 106 120 136 142 144 150 151 156 163 166 161 159 160 159 156 154 151 150 150 147 146 150 152 152 151 148 148 148 148 146 143 143 145 147 150 152 153 154 155 153 152 150 149 149 146 142 139 136 133 128 122 119 118 117 118 121 122
150 211 222 184 184 188 177 173 201 218 174 151 182 188 167 175 215 56 149 174 122 162 269 314 211 197 134 155 156 132 138 151 151 150 155 160 165 168 163 159 156 156 157 153 148 149 149 147 147 147 148 148 147 146 145 145 146 146 145 145 146 148 149 150 152 152 153 154 151 149 147 146 145 143 141 139 136 133 127 122 121 122 124 127 127 124
291 142 195 201 177 164 164 173 194 218 172 117 153 180 164 145 173 183 171 164 148 168 222 295 303 249 209 171 156 153 155 156 157 163 169 169 169 167 162 160 157 156 158 155 151 153 151 147 149 149 147 145 145 144 143 143 143 143 145 145 147 148 147 147 149 150 150 151 150 148 147 146 144 143 142 140 136 130 124 124 126 127 127 129 128 125
295 149 169 241 168 155 178 197 181 184 169 144 160 183 164 140 161 162 161 159 139 149 176 185 250 265 246 179 158 159 161 163 168 172 174 171 166 167 166 160 156 157 158 155 154 153 148 146 148 147 144 142 142 142 142 142 141 142 145 146 147 147 146 145 146 147 147 148 148 146 145 146 145 143 140 137 132 127 125 127 129 129 128 128 127 126
252 177 163 194 170 163 175 164 161 168 163 149 161 191 173 163 141 121 213 258 117 137 165 160 207 265 263 185 166 163 165 173 176 173 172 171 168 167 167 163 160 160 159 156 154 152 147 148 148 144 140 141 141 140 141 140 140 142 145 148 149 148 149 149 148 148 148 148 148 145 143 143 142 140 136 133 130 128 129 130 131 132 131 126 125 126
185 132 141 165 183 182 174 140 153 163 151 131 152 185 155 143 126 124 193 243 126 137 162 123 183 263 274 200 174 170 172 174 175 172 168 168 169 166 164 165 163 159 157 154 152 151 148 149 148 142 139 141 141 141 141 139 140 143 146 149 150 150 151 152 152 152 151 149 148 146 146 144 142 140 135 132 131 131 132 132 132 133 130 125 124 123
170 137 119 115 8 292 336 5 42 148 138 119 170 181 133 143 153 143 171 189 139 205 146 102 206 257 289 244 172 168 174 170 169 168 162 161 165 162 160 162 159 153 152 151 148 147 146 147 147 142 141 143 142 141 141 140 140 143 146 150 152 151 153 154 154 154 151 148 146 145 145 143 142 140 136 133 133 133 133 132 132 131 129 126 123 121
202 185 112 101 81 26 5 339 320 236 161 142 182 231 162 146 139 146 151 93 55 242 159 131 210 254 294 324 128 117 108 117 121 131 144 156 159 156 157 156 150 147 149 150 145 143 144 146 147 144 144 145 144 142 142 141 142 145 148 152 154 154 155 156 157 155 150 147 145 144 142 140 140 139 137 135 135 134 134 133 132 130 127 125 122 120
187 183 114 124 158 171 180 214 220 203 179 143 68 298 192 148 137 168 156 85 59 249 149 142 201 256 320 98 127 129 115 99 87 79 78 105 148 154 156 154 152 153 155 154 148 145 147 149 147 145 146 147 144 143 143 142 143 146 150 154 157 156 155 156 156 153 148 146 145 144 142 141 142 142 140 139 137 136 136 134 131 128 123 121 119 118
85 88 110 130 159 175 187 212 190 139 136 166 182 292 241 161 131 122 115 132 182 192 101 217 191 136 117 132 131 139 141 131 126 122 117 133 163 168 165 160 158 159 158 154 148 146 149 149 148 147 146 146 145 144 144 143 145 149 152 152 154 155 153 152 153 151 148 147 145 145 145 145 146 146 144 143 140 138 135 132 129 124 118 116 117 118
91 60 101 134 150 169 187 197 141 110 126 166 178 256 264 145 115 101 130 186 165 124 275 260 192 147 165 170 147 148 153 148 145 148 155 167 174 174 167 160 157 154 153 151 148 149 150 149 148 146 145 145 145 143 144 147 151 154 154 152 151 153 152 151 151 150 149 148 147 146 147 147 147 147 145 143 140 137 134 131 128 123 118 115 116 120
104 89 303 147 138 102 127 169 132 119 131 149 160 199 208 135 129 130 177 192 140 146 216 220 186 172 176 182 168 160 161 164 165 166 167 166 166 166 162 158 156 154 153 152 152 152 151 149 149 147 146 146 146 146 149 152 154 156 155 153 153 154 154 153 152 151 150 150 149 148 148 147 146 145 144 142 140 137 135 132 128 123 119 115 118 123
101 12 313 110 88 15 1 351 131 133 139 140 162 188 165 149 156 145 161 176 132 141 190 154 142 189 184 180 175 155 143 151 154 152 152 156 161 165 164 160 158 156 155 153 153 153 151 149 150 150 149 150 151 154 157 155 154 155 156 156 157 157 158 157 155 152 152 151 151 150 149 147 147 146 145 144 142 140 137 133 128 123 118 117 121 126
84 327 294 69 60 346 347 354 359 145 156 170 205 211 134 121 138 135 127 134 104 74 73 116 121 97 340 128 135 114 99 105 123 143 154 161 165 163 163 162 158 156 155 154 151 151 152 153 155 154 153 156 160 161 159 155 154 155 156 158 158 158 159 158 155 153 153 152 152 153 151 149 148 147 146 144 143 141 137 133 127 121 117 118 122 127
66 49 325 56 63 321 343 348 297 172 132 150 256 283 127 117 129 170 152 160 143 119 97 93 125 161 193 146 135 142 139 139 153 163 163 168 170 167 167 164 160 157 156 154 152 154 159 162 162 161 160 163 166 164 158 155 155 157 159 160 160 159 159 158 154 153 153 154 155 155 152 150 148 146 144 142 142 140 138 133 127 121 118 117 121 126
70 86 31 67 89 304 325 317 239 99 88 203 258 256 209 153 141 120 107 169 158 136 132 154 185 182 165 152 150 157 160 163 169 170 169 172 171 170 169 163 159 159 157 158 160 163 166 166 166 167 168 168 167 164 160 158 158 160 163 163 162 161 161 158 155 154 154 155 157 155 153 151 149 146 143 142 141 141 139 135 129 124 119 117 119 125
37 90 93 78 104 291 311 332 95 100 123 238 242 219 203 181 145 130 144 211 178 139 131 151 154 140 151 163 164 168 175 177 173 169 169 168 164 163 163 158 156 156 157 162 165 162 162 164 169 171 170 166 162 160 160 159 159 161 163 164 164 163 162 159 156 156 156 156 158 156 155 153 151 148 146 145 143 142 141 138 132 127 123 120 120 121
36 67 77 37 96 133 326 31 91 140 215 247 275 275 247 166 130 130 129 288 194 136 117 121 144 162 171 178 173 172 175 170 161 160 163 164 163 159 155 155 157 156 161 168 166 163 168 171 171 168 163 159 158 159 160 160 160 160 161 163 164 162 160 157 156 156 157 157 158 157 156 154 152 150 148 148 146 144 142 140 135 130 126 122 118 118
92 77 75 57 84 98 23 59 127 202 253 298 324 308 293 35 91 118 107 5 336 162 141 146 166 173 166 150 110 130 145 136 135 152 162 163 164 161 158 163 168 168 172 175 172 171 174 173 168 162 159 158 158 159 160 160 159 157 157 160 161 160 158 157 157 157 158 158 159 158 157 155 152 150 150 150 149 145 143 142 138 134 130 123 117 116
107 85 48 47 58 116 101 81 162 323 337 339 336 307 257 76 107 138 132 26 325 303 181 161 164 162 151 135 122 120 116 111 116 159 183 173 169 172 172 171 173 176 177 175 171 168 168 168 165 162 159 157 158 160 160 159 158 155 155 158 159 159 158 157 156 157 158 159 161 161 160 158 155 153 152 152 151 147 145 144 142 140 137 130 122 119
87 93 108 94 36 73 95 61 26 50 337 262 257 268 259 196 162 139 106 24 311 317 289 164 160 157 148 135 132 133 124 124 152 192 199 188 179 176 172 167 172 174 169 164 161 159 163 165 165 163 159 155 158 160 159 157 156 154 155 158 159 159 158 157 158 160 161 164 166 165 163 161 158 156 155 155 154 151 149 147 146 147 146 140 131 125
45 64 94 90 46 50 91 83 87 140 229 242 248 270 271 209 146 105 63 336 290 315 325 168 162 159 155 148 148 147 137 146 192 204 192 186 184 174 161 157 162 163 162 162 159 157 162 164 162 160 157 154 156 158 157 156 156 155 157 159 159 160 160 160 162 163 164 168 170 168 165 163 161 159 158 157 156 155 153 152 151 151 151 147 139 132
17 26 46 56 45 68 87 84 167 200 244 264 273 269 252 157 92 82 67 266 272 304 311 172 166 168 163 155 155 159 161 177 203 201 183 176 175 166 159 159 159 156 158 161 161 159 161 161 159 158 157 157 157 158 158 158 158 158 159 160 160 162 164 165 166 165 166 169 170 168 166 165 163 162 160 158 157 157 157 157 156 156 155 152 146 138
15 18 41 76 81 70 84 89 295 267 260 274 280 253 223 86 66 87 199 231 260 299 298 175 168 172 165 159 165 180 190 206 199 166 159 159 160 158 154 153 152 153 156 158 159 159 159 160 162 161 161 161 160 160 160 160 159 159 160 161 164 166 168 168 167 167 167 168 168 169 168 167 165 164 161 159 158 158 160 162 163 163 159 153 146 138
45 14 15 95 129 73 99 105 24 276 262 287 308 292 58 74 82 208 221 225 243 289 322 139 163 170 169 173 182 192 198 57 110 140 151 158 160 152 143 142 144 150 155 157 158 160 159 161 163 162 162 163 162 162 163 162 160 161 162 165 170 170 169 168 167 167 167 167 167 168 168 167 166 165 163 162 161 160 160 161 161 158 153 148 144 140
147 105 329 231 189 115 73 67 70 221 259 323 345 351 34 97 190 213 225 285 241 255 345 53 154 167 177 190 197 154 77 103 127 145 154 156 154 148 148 151 151 154 157 158 160 162 160 159 161 160 161 162 162 164 165 164 162 164 165 169 172 169 166 167 167 166 167 166 165 167 168 168 168 167 165 164 164 163 160 158 155 153 151 150 150 149
159 145 181 221 190 111 100 118 185 212 253 304 25 149 205 216 195 173 140 88 271 219 153 9 183 176 186 196 193 136 119 131 137 144 146 146 149 153 156 157 156 157 160 161 162 163 160 158 159 159 160 163 164 166 168 167 165 166 168 170 169 166 165 167 168 167 166 165 165 166 169 169 168 168 167 167 168 168 165 162 160 158 158 158 158 159
235 210 171 157 128 132 163 200 219 232 265 306 86 139 210 271 192 144 139 133 317 221 165 171 279 234 204 191 170 146 151 154 152 153 152 151 155 157 157 159 160 159 160 161 162 163 161 158 157 157 160 165 167 167 170 170 168 167 168 168 166 166 166 167 168 167 164 163 164 166 169 169 169 169 170 171 172 171 170 168 166 165 166 167 168 170
300 307 116 111 93 89 118 232 241 242 312 338 9 40 348 11 97 124 117 111 295 288 179 176 217 239 206 169 155 161 173 164 156 157 156 153 154 155 155 158 160 160 160 161 162 163 161 158 157 159 161 166 168 169 171 172 171 168 167 166 166 166 166 166 166 164 163 163 164 166 168 169 169 171 172 173 174 175 174 172 169 169 173 176 178 180
319 357 54 76 79 81 28 283 265 214 327 339 2 359 351 357 5 89 110 133 223 150 125 172 189 185 166 162 161 166 171 162 155 154 155 154 155 158 159 159 161 165 166 165 164 163 161 159 161 162 162 165 168 170 170 171 171 168 166 166 166 166 166 166 164 163 162 164 165 166 169 170 170 171 172 174 176 176 175 175 174 175 178 182 186 188
317 12 44 51 61 103 225 255 265 300 308 323 43 38 337 331 350 15 30 332 345 87 85 88 109 107 131 161 163 157 157 161 159 156 158 160 159 160 162 163 164 167 168 167 166 165 164 163 164 164 164 166 169 171 170 169 168 168 167 167 168 167 166 165 165 164 164 165 166 168 170 171 172 173 173 172 172 173 175 179 182 182 183 187 191 191
327 11 52 70 43 37 246 265 310 7 332 329 356 350 299 305 355 3 354 358 25 37 35 38 59 102 132 142 150 149 149 157 162 158 157 158 158 160 161 162 163 165 167 168 168 167 166 166 165 165 166 168 170 169 168 166 167 169 168 168 169 168 166 165 165 165 165 166 167 170 172 172 173 174 174 174 174 177 180 184 186 187 188 192 195 196
37 19 70 91 77 163 223 227 159 124 245 288 293 289 287 291 52 22 353 360 21 18 45 73 59 54 100 122 139 147 144 146 154 156 155 157 159 159 157 157 160 163 166 168 169 168 168 167 167 167 168 169 169 167 166 167 168 170 170 169 169 169 168 166 165 165 166 168 169 171 172 173 174 175 176 177 178 179 181 184 188 193 197 200 201 201
138 172 143 130 162 225 232 219 163 130 200 254 259 276 287 291 71 48 353 326 349 355 129 122 104 94 87 77 93 135 144 144 143 144 143 141 146 151 153 156 159 161 164 167 168 169 169 168 169 170 170 168 168 167 167 168 170 171 172 171 171 171 170 168 166 166 168 170 171 172 173 174 175 177 177 178 179 178 177 176 178 183 184 183 182 183
Height
741 748 748 744 742 740 740 742 744 742 739 741 743 744 742 742 743 736 730 724 723 734 740 739 747 756 757 755 753 754 757 763 767 769 770 771 771 772 773 775 777 778 777 777 778 780 781 783 785 787 789 790 791 791 790 790 789 788 789 793 798 802 805 807 810 812 814 814 815 817 818 820 822 824 826 827 828 828 828 829 829 829 829 829 829 829
739 747 744 739 739 737 737 739 739 739 739 740 743 744 742 742 740 732 729 724 721 732 739 739 749 757 755 754 754 754 758 763 765 767 769 770 771 772 772 774 777 778 778 778 779 781 783 784 785 786 789 790 791 791 791 790 790 790 791 793 797 801 804 807 809 811 813 813 814 816 818 820 822 824 826 827 828 828 828 828 829 829 829 829 829 830
741 742 738 736 735 733 735 737 737 739 740 742 743 744 744 741 738 733 728 724 723 732 739 740 750 758 755 754 757 756 756 758 759 759 762 765 768 771 772 773 776 778 778 777 778 780 782 783 784 785 788 790 791 791 791 791 790 791 792 794 797 801 803 806 808 810 812 813 815 816 818 820 822 824 826 827 828 828 829 829 829 830 830 829 830 830
742 738 734 733 732 733 735 735 737 740 741 742 743 747 746 738 738 740 732 726 725 729 734 740 753 761 759 758 759 758 757 759 760 759 761 763 764 767 769 771 774 774 775 776 777 778 780 782 784 786 788 790 791 792 792 791 791 792 793 795 798 801 803 805 808 810 812 813 815 817 819 821 822 824 826 827 828 829 829 829 829 829 830 830 830 830
736 730 728 730 731 732 735 735 737 742 744 742 741 744 745 738 737 737 732 728 728 730 733 744 764 771 765 766 765 761 762 764 764 765 766 766 765 767 769 771 772 770 770 772 774 777 779 781 784 786 788 790 791 792 792 792 792 793 794 796 798 801 803 805 807 810 811 813 815 817 819 821 823 825 826 827 829 829 829 829 829 829 830 830 831 831
733 725 724 730 731 731 734 734 733 738 746 744 739 738 738 737 735 734 732 733 739 745 737 742 771 782 771 770 769 762 764 768 769 769 770 770 769 769 770 770 770 769 769 770 773 776 778 781 783 786 788 790 791 792 793 793 793 794 795 797 799 802 804 806 808 809 811 813 814 816 818 820 822 824 827 828 828 829 829 829 829 830 831 831 831 831
728 722 723 728 730 731 733 733 728 731 744 747 735 729 732 734 735 735 736 740 748 749 735 730 757 783 780 772 767 761 763 768 769 771 771 770 770 768 768 768 767 768 769 770 773 774 776 779 781 783 786 789 791 793 794 794 794 795 796 798 800 802 804 806 808 810 811 813 814 816 817 819 821 824 827 828 829 829 829 829 830 830 831 831 831 831
720 721 724 725 729 731 731 731 725 725 739 743 728 723 730 733 734 736 739 744 743 739 735 728 740 772 783 770 763 762 765 769 770 770 771 769 768 766 765 765 765 766 767 769 771 773 774 776 778 781 784 787 790 792 793 794 794 795 796 799 801 803 805 806 808 810 811 813 814 816 818 820 822 824 827 828 829 829 829 829 830 831 831 832 832 832
714 720 722 722 727 729 726 724 720 722 733 732 722 722 727 729 732 733 738 742 739 740 748 741 739 767 780 765 760 764 766 770 770 767 768 766 764 764 763 764 764 765 766 766 769 771 773 775 777 780 784 787 789 791 793 794 795 796 797 799 801 803 805 806 808 810 811 813 814 816 818 820 823 825 827 828 828 829 829 830 831 832 832 832 832 832
712 712 713 718 724 724 721 718 716 721 727 722 719 723 724 726 729 730 736 739 740 749 755 745 740 762 779 769 763 769 768 767 765 762 763 762 760 761 761 762 763 764 766 767 769 770 772 774 777 780 783 786 789 790 792 794 795 796 797 799 801 803 805 806 808 810 811 813 815 817 818 820 823 825 827 827 828 829 829 830 831 832 832 832 833 833
707 705 707 711 714 715 715 714 714 717 720 717 719 725 728 729 729 730 733 734 746 755 747 739 738 750 773 772 761 760 753 748 754 758 759 758 758 759 759 760 762 763 765 767 769 771 773 775 777 780 784 786 788 790 792 793 795 796 797 799 801 803 805 806 808 810 812 814 816 817 819 820 823 824 825 826 827 828 829 830 831 832 832 833 834 834
708 706 706 703 703 708 712 714 713 712 715 717 720 728 736 739 736 738 739 739 754 757 735 731 737 742 760 765 752 745 735 734 743 748 750 752 753 754 756 757 760 761 764 766 769 771 773 776 778 781 783 786 788 790 791 793 795 796 798 800 801 803 805 807 809 810 812 815 817 818 820 821 823 824 824 825 826 828 829 830 831 832 833 834 834 834
713 706 702 701 699 702 711 718 718 715 716 720 722 730 744 751 750 753 753 748 753 748 725 723 734 738 744 741 735 734 730 731 734 731 735 741 745 750 752 755 757 760 763 765 768 771 773 775 777 780 783 785 787 789 792 794 795 797 799 800 802 804 806 807 809 811 813 816 818 819 821 822 824 824 824 825 826 828 828 829 830 831 833 833 833 834
718 709 700 702 701 696 703 716 721 719 718 721 724 731 745 753 758 763 760 752 749 738 720 718 728 737 736 727 722 723 721 720 723 725 729 733 738 744 748 752 756 759 761 764 767 770 772 774 776 779 782 784 787 789 792 794 796 798 800 801 802 804 806 808 810 812 814 816 819 820 822 823 824 824 825 825 826 827 828 829 830 831 832 832 833 835
722 719 703 698 698 694 697 704 709 711 715 718 716 723 737 740 745 755 752 746 745 735 722 722 729 732 730 721 713 711 711 715 722 728 732 736 740 744 748 752 756 759 762 764 767 770 772 774 776 778 781 784 787 789 791 794 796 797 799 801 802 805 807 809 811 813 814 817 819 820 822 823 824 824 824 825 826 827 828 829 830 831 832 833 834 836
717 714 695 688 688 688 695 696 694 704 715 715 711 719 729 725 725 736 738 734 732 730 727 725 725 721 717 715 710 708 714 721 727 732 736 741 745 747 751 754 756 759 762 764 767 770 772 774 776 778 781 784 786 789 791 793 795 797 799 801 802 805 808 809 811 814 815 817 819 821 822 823 824 824 824 825 826 827 828 829 830 831 833 834 836 837
713 709 688 684 686 683 689 691 688 698 709 711 714 719 715 710 713 724 735 734 728 733 733 725 724 719 715 720 718 716 723 729 730 734 738 742 746 750 752 754 756 759 761 763 766 769 771 773 775 778 780 783 786 788 791 793 795 797 799 801 802 805 808 810 812 814 816 818 819 821 822 823 824 824 825 825 826 827 828 829 830 832 834 836 837 838
703 705 687 683 690 682 679 685 686 687 692 704 715 713 704 706 712 717 732 738 735 739 733 723 725 722 721 732 732 726 733 736 735 736 741 745 748 751 752 754 756 757 759 763 766 769 771 773 775 778 780 783 786 788 791 793 795 797 800 801 802 806 808 811 813 815 816 818 819 821 822 823 824 825 826 826 827 827 828 830 831 833 835 837 838 839
694 702 691 680 686 683 676 686 694 687 683 693 700 698 702 717 724 723 731 738 740 744 737 727 726 722 725 738 737 732 736 737 737 738 741 745 747 749 752 753 755 757 760 763 766 769 771 773 775 777 780 783 786 789 791 793 796 798 800 802 803 807 809 811 813 815 817 818 820 821 822 824 825 825 826 826 827 827 828 830 832 834 836 837 838 839
692 699 697 682 677 681 682 689 700 697 688 688 691 692 697 708 716 718 723 728 732 741 740 734 732 724 722 728 728 729 732 732 735 738 739 741 744 747 749 751 754 756 759 762 765 768 770 772 775 777 780 784 786 789 791 793 796 798 801 803 804 808 810 812 814 815 817 819 820 822 823 824 825 825 826 827 827 827 829 831 833 835 837 837 838 839
693 695 698 689 678 684 691 690 694 698 694 694 698 701 700 702 705 710 716 718 720 731 736 737 736 723 712 713 716 719 723 723 726 729 733 738 741 744 747 748 751 754 758 761 764 767 769 772 775 777 781 784 787 790 792 793 796 798 801 803 805 808 810 812 814 815 817 818 820 821 822 823 824 825 826 827 827 828 830 832 835 836 837 838 839 840
694 693 693 692 688 691 692 683 682 687 689 692 697 701 701 702 707 717 724 718 711 719 726 729 733 720 705 704 706 707 711 713 714 718 725 732 736 740 744 746 748 751 756 760 762 766 769 772 775 778 781 785 787 790 792 794 796 798 801 804 806 808 810 812 814 815 817 818 819 820 821 823 824 825 826 827 828 830 831 833 836 837 837 839 840 841
685 689 691 692 690 689 684 677 677 680 682 687 691 694 698 700 705 717 726 718 710 716 719 722 727 718 706 703 701 700 702 703 708 714 721 729 732 735 740 744 746 749 753 758 761 764 768 771 775 778 781 785 787 790 792 794 796 798 801 804 806 808 810 812 814 815 816 818 819 820 822 823 825 826 827 828 829 831 833 835 837 838 839 840 841 842
679 687 690 692 689 683 678 676 676 676 680 688 691 690 694 698 698 702 711 710 709 715 718 724 730 717 705 704 702 702 702 703 708 713 720 729 733 736 741 744 747 751 754 757 760 763 767 771 775 778 781 785 787 790 792 794 797 799 802 805 807 809 811 812 814 815 816 818 819 821 822 823 825 826 828 830 831 833 835 836 838 839 840 841 842 843
680 685 687 696 701 698 695 693 689 685 685 690 692 690 690 693 694 696 702 706 712 717 715 721 729 718 706 706 706 707 710 714 719 721 725 731 734 738 743 745 749 753 756 759 761 764 768 771 775 778 781 785 787 790 793 794 797 800 803 805 807 809 811 813 815 816 817 818 820 821 823 824 826 828 829 831 833 835 836 837 839 840 841 842 842 843
679 682 682 694 709 713 712 709 700 694 692 690 691 691 689 689 694 698 703 709 719 723 717 716 723 720 714 712 710 711 716 723 728 731 734 738 740 741 743 745 748 752 755 758 761 765 768 771 774 777 781 784 786 789 793 795 798 801 803 806 807 809 811 813 815 817 818 820 821 822 824 825 827 829 831 833 834 836 837 838 839 840 841 842 842 843
676 680 680 688 699 704 704 699 690 688 693 695 694 694 691 688 693 699 705 710 715 717 717 715 717 722 724 721 716 716 719 723 727 731 737 743 745 744 743 744 746 749 752 755 759 764 768 771 774 777 781 784 787 789 793 795 798 801 803 806 808 809 811 813 816 818 820 821 822 824 825 826 828 829 831 833 835 837 838 839 840 841 842 843 843 844
677 683 684 684 686 690 690 686 682 683 691 695 694 696 694 690 693 701 705 708 710 714 718 718 717 721 725 723 719 718 719 723 727 729 732 737 740 742 743 745 747 750 753 755 759 763 767 770 774 777 780 784 787 790 793 795 798 801 803 806 808 810 812 814 816 818 820 822 824 825 826 827 829 831 833 835 836 838 839 840 841 842 843 844 844 845
680 686 686 682 682 685 684 681 681 682 687 691 692 695 696 694 693 697 703 706 706 708 711 713 716 719 719 719 717 713 712 716 719 721 724 729 736 741 743 746 749 751 753 756 759 762 766 770 773 776 779 783 787 790 792 794 797 800 804 807 809 811 813 814 816 818 820 822 824 826 827 828 830 832 834 836 837 839 840 841 842 843 844 845 846 847
683 689 688 682 682 685 683 681 682 683 686 690 692 693 695 697 694 693 699 703 701 702 706 711 718 721 717 717 716 712 711 714 717 721 725 730 737 741 743 746 748 750 753 756 759 762 766 769 773 776 779 782 785 788 790 792 795 799 803 806 809 811 813 814 815 817 820 822 824 826 827 829 831 833 835 836 838 839 841 842 843 844 845 846 847 848
682 691 690 683 685 688 683 680 682 684 687 690 692 692 694 700 700 697 700 701 699 708 717 717 720 723 720 717 718 717 717 721 726 729 730 733 736 740 743 746 748 750 753 755 759 763 766 769 772 775 778 781 783 785 787 791 795 799 803 806 808 810 812 814 815 817 820 822 825 826 828 830 831 833 835 837 838 840 841 843 844 845 846 847 848 849
681 690 690 685 692 696 687 682 684 686 691 693 693 693 695 699 700 698 698 697 697 710 724 726 723 722 720 719 721 719 717 721 727 730 732 735 736 738 741 744 746 749 752 755 758 762 765 767 769 771 773 776 779 782 786 789 794 798 801 804 808 810 812 813 815 818 821 823 826 827 829 830 832 834 836 837 839 841 842 844 845 846 848 848 849 850
685 689 691 692 699 699 694 693 691 693 704 707 699 697 700 699 698 698 696 693 696 706 718 720 716 714 716 719 722 723 721 722 724 726 729 733 735 738 740 742 745 748 751 753 756 758 762 764 767 769 770 772 775 779 783 786 790 795 799 802 806 809 811 813 815 818 821 824 826 828 829 831 832 834 836 838 840 842 843 845 846 847 848 849 850 850
689 690 694 697 699 700 701 700 699 706 718 715 700 696 698 695 693 697 696 694 698 703 706 708 709 712 718 719 719 720 720 718 719 721 724 728 732 737 741 743 746 749 751 754 756 759 763 766 768 770 772 774 777 780 784 786 790 794 799 802 805 807 810 812 815 818 821 824 827 829 830 832 833 835 837 839 841 842 844 845 846 848 849 850 851 851
691 692 696 699 700 702 703 702 709 721 720 707 696 695 695 693 690 693 697 699 700 700 699 704 710 714 717 718 716 715 715 714 717 721 723 726 729 733 738 743 746 749 752 754 757 760 763 764 767 771 774 777 780 782 785 788 791 794 798 802 805 807 810 812 815 818 821 824 826 829 831 832 834 836 838 840 842 843 844 845 847 848 850 851 852 853
691 694 697 700 704 706 706 707 716 721 711 701 699 696 694 695 693 693 701 707 706 701 697 701 708 712 714 718 719 719 719 719 722 723 724 726 728 730 734 738 741 744 745 747 750 754 758 761 764 768 773 777 780 783 786 789 791 794 798 801 805 808 811 813 816 818 821 824 827 829 831 833 834 836 838 840 842 843 845 846 847 849 851 852 853 854
688 695 698 702 707 710 712 714 714 713 711 706 702 697 694 695 693 693 703 711 709 706 702 702 708 713 715 718 721 722 723 726 730 731 728 727 728 729 730 732 735 738 741 744 748 752 757 762 765 768 771 775 778 782 785 788 792 795 798 802 805 807 810 813 817 819 822 825 828 830 832 833 834 836 838 840 842 844 845 847 848 850 851 853 854 855
688 695 699 705 710 710 712 715 716 718 718 711 702 697 693 692 690 689 699 709 708 705 705 705 709 714 715 719 724 725 726 730 734 733 729 727 729 730 732 735 737 740 743 747 751 755 759 763 766 769 772 775 778 781 784 787 791 794 798 801 804 807 809 812 815 818 822 825 828 830 832 833 835 836 838 840 842 844 845 847 849 851 852 853 855 856
691 696 698 702 710 711 710 717 722 722 717 707 700 697 693 693 689 688 702 714 709 703 705 705 708 712 713 716 722 724 728 735 736 729 725 726 727 729 733 737 739 743 746 749 752 755 760 764 766 770 773 776 779 782 784 787 790 793 797 800 803 806 808 810 812 815 819 825 828 829 831 833 835 836 838 840 842 844 846 847 849 851 853 854 856 857
697 699 701 705 711 713 712 718 722 717 709 703 699 698 696 691 689 698 717 723 709 702 705 704 706 710 711 713 718 720 721 724 723 718 717 721 725 729 732 735 738 742 746 750 752 755 759 763 767 770 773 776 779 782 785 787 790 794 797 799 802 805 807 810 812 814 818 823 827 830 831 833 835 837 838 840 842 844 846 848 850 852 853 855 856 858
703 704 709 711 713 713 714 718 720 713 705 700 698 697 694 692 697 713 724 718 706 703 704 702 704 708 709 712 715 714 710 706 704 705 712 720 725 729 732 735 738 742 746 750 754 756 759 762 765 768 772 775 778 781 784 787 790 793 796 799 801 804 806 809 812 815 818 821 825 829 832 833 835 837 838 840 842 844 847 848 850 852 853 855 856 858
709 710 714 714 714 716 716 719 722 716 704 698 697 694 692 700 713 720 715 708 706 705 702 701 704 706 709 711 710 708 705 704 703 705 711 718 723 728 733 736 740 744 747 750 754 757 760 763 766 768 771 774 777 780 783 786 789 793 796 798 801 803 806 809 812 815 818 820 823 827 831 833 835 837 839 841 843 845 847 849 851 852 853 855 856 857
710 713 717 716 714 718 720 722 726 721 708 701 700 697 698 706 713 711 706 706 707 704 702 702 703 705 708 709 709 708 707 708 708 709 711 716 721 727 731 734 738 742 746 749 753 756 759 763 766 769 771 774 777 780 782 785 789 792 795 798 800 803 806 809 812 815 818 821 823 826 830 833 835 837 839 841 843 845 847 849 851 852 853 854 856 857
708 712 716 715 713 716 720 722 723 718 710 705 704 704 704 705 704 703 704 706 705 704 704 702 702 704 705 706 708 711 710 711 713 713 715 720 724 727 730 733 736 740 744 747 752 755 758 762 766 769 772 774 776 779 782 784 788 792 795 797 801 803 806 810 813 816 819 821 823 826 830 833 835 837 839 841 843 845 847 848 850 852 853 854 855 856
711 709 709 711 712 714 716 716 715 713 710 707 705 704 704 703 702 702 703 703 703 703 704 701 700 702 702 702 707 711 711 711 712 713 715 720 724 728 732 734 736 739 743 747 751 754 758 761 765 769 772 775 776 779 781 784 787 790 794 797 800 803 806 810 813 816 818 820 823 826 830 832 835 837 839 841 843 844 846 848 849 851 852 854 855 856
714 710 706 707 711 714 714 714 712 710 708 705 704 704 703 703 702 701 701 702 702 702 702 701 700 699 699 701 705 709 710 710 711 713 716 719 723 728 732 735 738 741 743 746 750 754 758 761 765 768 771 775 777 779 782 784 786 789 793 796 800 803 806 809 812 815 818 820 823 826 829 832 835 837 839 841 843 844 845 847 848 850 851 852 854 855
713 710 707 708 711 715 716 714 710 709 708 706 703 703 702 702 702 700 700 701 701 700 701 701 699 698 699 699 700 705 708 709 711 715 718 719 723 727 729 733 737 740 742 745 748 752 756 759 763 767 770 773 777 779 782 785 787 789 792 796 800 803 806 809 812 815 817 820 823 826 829 831 834 836 838 840 842 844 846 847 848 849 850 851 853 854
713 710 711 713 715 716 717 715 710 710 710 707 704 704 704 703 701 700 700 700 700 699 700 701 700 699 699 699 700 702 707 710 711 714 717 720 722 725 728 731 734 738 742 745 747 751 754 757 761 765 769 773 776 779 781 784 786 789 792 796 799 803 806 809 811 814 817 820 822 825 828 830 833 835 838 840 842 843 845 846 848 849 849 851 852 853
714 713 714 717 718 719 718 715 712 711 710 707 706 706 706 704 702 700 700 700 700 699 699 700 700 700 699 701 702 703 706 711 712 713 716 719 722 725 728 731 734 738 742 745 747 750 753 756 760 764 768 771 774 777 780 782 786 789 792 795 798 801 804 808 811 814 817 819 822 825 828 830 833 835 837 839 840 842 844 846 847 848 849 851 852 853
715 716 717 718 720 719 715 712 711 713 713 709 707 705 704 703 702 701 701 700 700 700 699 699 701 702 702 702 704 705 708 711 714 716 717 719 722 725 729 732 736 740 743 746 750 752 754 757 760 763 766 770 773 775 779 782 785 789 791 794 797 800 803 807 810 813 816 819 822 824 827 829 832 834 836 837 839 841 843 845 847 848 849 850 851 852
716 716 716 717 718 715 710 709 712 714 712 709 707 705 704 703 703 702 702 702 701 701 700 700 702 704 706 707 707 708 710 712 715 718 721 724 726 728 730 733 736 740 744 748 751 754 756 758 760 762 765 768 771 775 778 782 785 788 791 794 797 799 802 805 809 812 815 818 820 823 826 828 830 832 834 836 838 840 842 844 846 848 849 850 851 852